Year,Month,Day,Hour,Minute,Value (Times are PST for temperature in C)
2022,10,04,00,00,18.20
2022,10,04,00,01,18.10
2022,10,04,00,02,18.10
2022,10,04,00,03,18.10
2022,10,04,00,04,18.10
2022,10,04,00,05,18.10
2022,10,04,00,06,18.10
2022,10,04,00,07,18.10
2022,10,04,00,08,18.10
2022,10,04,00,09,18.10
2022,10,04,00,10,18.10
2022,10,04,00,11,18.10
2022,10,04,00,12,18.00
2022,10,04,00,13,18.00
2022,10,04,00,14,18.00
2022,10,04,00,15,17.90
2022,10,04,00,16,17.90
2022,10,04,00,17,17.90
2022,10,04,00,18,17.90
2022,10,04,00,19,17.90
2022,10,04,00,20,17.90
2022,10,04,00,21,17.80
2022,10,04,00,22,17.80
2022,10,04,00,23,17.80
2022,10,04,00,24,17.80
2022,10,04,00,25,17.80
2022,10,04,00,26,17.70
2022,10,04,00,27,17.70
2022,10,04,00,28,17.70
2022,10,04,00,29,17.70
2022,10,04,00,30,17.60
2022,10,04,00,31,17.60
2022,10,04,00,32,17.60
2022,10,04,00,33,17.60
2022,10,04,00,34,17.50
2022,10,04,00,35,17.50
2022,10,04,00,36,17.50
2022,10,04,00,37,17.40
2022,10,04,00,38,17.40
2022,10,04,00,39,17.40
2022,10,04,00,40,17.40
2022,10,04,00,41,17.40
2022,10,04,00,42,17.30
2022,10,04,00,43,17.30
2022,10,04,00,44,17.30
2022,10,04,00,45,17.30
2022,10,04,00,46,17.30
2022,10,04,00,47,17.30
2022,10,04,00,48,17.30
2022,10,04,00,49,17.20
2022,10,04,00,50,17.20
2022,10,04,00,51,17.20
2022,10,04,00,52,17.20
2022,10,04,00,53,17.20
2022,10,04,00,54,17.20
2022,10,04,00,55,17.10
2022,10,04,00,56,17.10
2022,10,04,00,57,17.10
2022,10,04,00,58,17.10
2022,10,04,00,59,17.10
2022,10,04,01,00,17.10
2022,10,04,01,01,17.10
2022,10,04,01,02,17.00
2022,10,04,01,03,17.00
2022,10,04,01,04,17.00
2022,10,04,01,05,17.00
2022,10,04,01,06,17.00
2022,10,04,01,07,17.00
2022,10,04,01,08,17.10
2022,10,04,01,09,17.10
2022,10,04,01,10,17.10
2022,10,04,01,11,17.10
2022,10,04,01,12,17.20
2022,10,04,01,13,17.20
2022,10,04,01,14,17.20
2022,10,04,01,15,17.30
2022,10,04,01,16,17.30
2022,10,04,01,17,17.30
2022,10,04,01,18,17.30
2022,10,04,01,19,17.30
2022,10,04,01,20,17.30
2022,10,04,01,21,17.30
2022,10,04,01,22,17.30
2022,10,04,01,23,17.40
2022,10,04,01,24,17.40
2022,10,04,01,25,17.40
2022,10,04,01,26,17.40
2022,10,04,01,27,17.40
2022,10,04,01,28,17.40
2022,10,04,01,29,17.40
2022,10,04,01,30,17.40
2022,10,04,01,31,17.40
2022,10,04,01,32,17.40
2022,10,04,01,33,17.40
2022,10,04,01,34,17.40
2022,10,04,01,35,17.30
2022,10,04,01,36,17.30
2022,10,04,01,37,17.30
2022,10,04,01,38,17.30
2022,10,04,01,39,17.30
2022,10,04,01,40,17.20
2022,10,04,01,41,17.20
2022,10,04,01,42,17.20
2022,10,04,01,43,17.20
2022,10,04,01,44,17.10
2022,10,04,01,45,17.10
2022,10,04,01,46,17.10
2022,10,04,01,47,17.10
2022,10,04,01,48,17.10
2022,10,04,01,49,17.10
2022,10,04,01,50,17.10
2022,10,04,01,51,17.10
2022,10,04,01,52,17.10
2022,10,04,01,53,17.10
2022,10,04,01,54,17.10
2022,10,04,01,55,17.10
2022,10,04,01,56,17.10
2022,10,04,01,57,17.10
2022,10,04,01,58,17.10
2022,10,04,01,59,17.10
2022,10,04,02,00,17.10
2022,10,04,02,01,17.10
2022,10,04,02,02,17.10
2022,10,04,02,03,17.00
2022,10,04,02,04,17.10
2022,10,04,02,05,17.10
2022,10,04,02,06,17.10
2022,10,04,02,07,17.10
2022,10,04,02,08,17.10
2022,10,04,02,09,17.10
2022,10,04,02,10,17.10
2022,10,04,02,11,17.10
2022,10,04,02,12,17.20
2022,10,04,02,13,17.20
2022,10,04,02,14,17.20
2022,10,04,02,15,17.20
2022,10,04,02,16,17.20
2022,10,04,02,17,17.20
2022,10,04,02,18,17.20
2022,10,04,02,19,17.20
2022,10,04,02,20,17.20
2022,10,04,02,21,17.20
2022,10,04,02,22,17.20
2022,10,04,02,23,17.20
2022,10,04,02,24,17.20
2022,10,04,02,25,17.20
2022,10,04,02,26,17.20
2022,10,04,02,27,17.10
2022,10,04,02,28,17.10
2022,10,04,02,29,17.10
2022,10,04,02,30,17.10
2022,10,04,02,31,17.10
2022,10,04,02,32,17.10
2022,10,04,02,33,17.10
2022,10,04,02,34,17.10
2022,10,04,02,35,17.10
2022,10,04,02,36,17.10
2022,10,04,02,37,17.10
2022,10,04,02,38,17.10
2022,10,04,02,39,17.10
2022,10,04,02,40,17.10
2022,10,04,02,41,17.10
2022,10,04,02,42,17.10
2022,10,04,02,43,17.10
2022,10,04,02,44,17.10
2022,10,04,02,45,17.10
2022,10,04,02,46,17.10
2022,10,04,02,47,17.10
2022,10,04,02,48,17.00
2022,10,04,02,49,17.00
2022,10,04,02,50,17.00
2022,10,04,02,51,17.00
2022,10,04,02,52,17.00
2022,10,04,02,53,17.00
2022,10,04,02,54,16.90
2022,10,04,02,55,16.90
2022,10,04,02,56,16.90
2022,10,04,02,57,16.90
2022,10,04,02,58,16.90
2022,10,04,02,59,16.90
2022,10,04,03,00,16.80
2022,10,04,03,01,16.80
2022,10,04,03,02,16.80
2022,10,04,03,03,16.80
2022,10,04,03,04,16.80
2022,10,04,03,05,16.70
2022,10,04,03,06,16.70
2022,10,04,03,07,16.70
2022,10,04,03,08,16.70
2022,10,04,03,09,16.70
2022,10,04,03,10,16.60
2022,10,04,03,11,16.60
2022,10,04,03,12,16.60
2022,10,04,03,13,16.50
2022,10,04,03,14,16.50
2022,10,04,03,15,16.50
2022,10,04,03,16,16.50
2022,10,04,03,17,16.50
2022,10,04,03,18,16.40
2022,10,04,03,19,16.50
2022,10,04,03,20,16.40
2022,10,04,03,21,16.40
2022,10,04,03,22,16.40
2022,10,04,03,23,16.40
2022,10,04,03,24,16.40
2022,10,04,03,25,16.40
2022,10,04,03,26,16.40
2022,10,04,03,27,16.30
2022,10,04,03,28,16.30
2022,10,04,03,29,16.30
2022,10,04,03,30,16.30
2022,10,04,03,31,16.30
2022,10,04,03,32,16.30
2022,10,04,03,33,16.30
2022,10,04,03,34,16.30
2022,10,04,03,35,16.30
2022,10,04,03,36,16.30
2022,10,04,03,37,16.30
2022,10,04,03,38,16.20
2022,10,04,03,39,16.20
2022,10,04,03,40,16.20
2022,10,04,03,41,16.20
2022,10,04,03,42,16.20
2022,10,04,03,43,16.20
2022,10,04,03,44,16.20
2022,10,04,03,45,16.20
2022,10,04,03,46,16.20
2022,10,04,03,47,16.10
2022,10,04,03,48,16.10
2022,10,04,03,49,16.10
2022,10,04,03,50,16.00
2022,10,04,03,51,16.00
2022,10,04,03,52,16.00
2022,10,04,03,53,16.00
2022,10,04,03,54,15.90
2022,10,04,03,55,15.90
2022,10,04,03,56,15.90
2022,10,04,03,57,15.90
2022,10,04,03,58,15.90
2022,10,04,03,59,15.90
2022,10,04,04,00,15.90
2022,10,04,04,01,15.90
2022,10,04,04,02,15.90
2022,10,04,04,03,15.90
2022,10,04,04,04,15.90
2022,10,04,04,05,15.90
2022,10,04,04,06,15.90
2022,10,04,04,07,15.90
2022,10,04,04,08,15.90
2022,10,04,04,09,15.90
2022,10,04,04,10,15.90
2022,10,04,04,11,15.90
2022,10,04,04,12,15.80
2022,10,04,04,13,15.80
2022,10,04,04,14,15.80
2022,10,04,04,15,15.80
2022,10,04,04,16,15.80
2022,10,04,04,17,15.80
2022,10,04,04,18,15.80
2022,10,04,04,19,15.80
2022,10,04,04,20,15.80
2022,10,04,04,21,15.70
2022,10,04,04,22,15.70
2022,10,04,04,23,15.70
2022,10,04,04,24,15.70
2022,10,04,04,25,15.70
2022,10,04,04,26,15.70
2022,10,04,04,27,15.80
2022,10,04,04,28,15.80
2022,10,04,04,29,15.70
2022,10,04,04,30,15.70
2022,10,04,04,31,15.70
2022,10,04,04,32,15.70
2022,10,04,04,33,15.70
2022,10,04,04,34,15.70
2022,10,04,04,35,15.70
2022,10,04,04,36,15.70
2022,10,04,04,37,15.70
2022,10,04,04,38,15.60
2022,10,04,04,39,15.60
2022,10,04,04,40,15.60
2022,10,04,04,41,15.60
2022,10,04,04,42,15.50
2022,10,04,04,43,15.50
2022,10,04,04,44,15.50
2022,10,04,04,45,15.50
2022,10,04,04,46,15.40
2022,10,04,04,47,15.40
2022,10,04,04,48,15.40
2022,10,04,04,49,15.40
2022,10,04,04,50,15.30
2022,10,04,04,51,15.30
2022,10,04,04,52,15.30
2022,10,04,04,53,15.30
2022,10,04,04,54,15.20
2022,10,04,04,55,15.20
2022,10,04,04,56,15.10
2022,10,04,04,57,15.10
2022,10,04,04,58,15.00
2022,10,04,04,59,15.00
2022,10,04,05,00,14.90
2022,10,04,05,01,14.80
2022,10,04,05,02,14.80
2022,10,04,05,03,14.70
2022,10,04,05,04,14.70
2022,10,04,05,05,14.60
2022,10,04,05,06,14.60
2022,10,04,05,07,14.50
2022,10,04,05,08,14.50
2022,10,04,05,09,14.50
2022,10,04,05,10,14.60
2022,10,04,05,11,14.60
2022,10,04,05,12,14.60
2022,10,04,05,13,14.60
2022,10,04,05,14,14.60
2022,10,04,05,15,14.70
2022,10,04,05,16,14.70
2022,10,04,05,17,14.70
2022,10,04,05,18,14.70
2022,10,04,05,19,14.70
2022,10,04,05,20,14.70
2022,10,04,05,21,14.70
2022,10,04,05,22,14.80
2022,10,04,05,23,14.80
2022,10,04,05,24,14.80
2022,10,04,05,25,14.80
2022,10,04,05,26,14.70
2022,10,04,05,27,14.70
2022,10,04,05,28,14.70
2022,10,04,05,29,14.70
2022,10,04,05,30,14.60
2022,10,04,05,31,14.60
2022,10,04,05,32,14.60
2022,10,04,05,33,14.60
2022,10,04,05,34,14.50
2022,10,04,05,35,14.50
2022,10,04,05,36,14.40
2022,10,04,05,37,14.40
2022,10,04,05,38,14.40
2022,10,04,05,39,14.30
2022,10,04,05,40,14.30
2022,10,04,05,41,14.20
2022,10,04,05,42,14.20
2022,10,04,05,43,14.10
2022,10,04,05,44,14.10
2022,10,04,05,45,14.10
2022,10,04,05,46,14.00
2022,10,04,05,47,14.00
2022,10,04,05,48,14.00
2022,10,04,05,49,13.90
2022,10,04,05,50,13.90
2022,10,04,05,51,13.90
2022,10,04,05,52,13.90
2022,10,04,05,53,13.80
2022,10,04,05,54,13.80
2022,10,04,05,55,13.80
2022,10,04,05,56,13.80
2022,10,04,05,57,13.80
2022,10,04,05,58,13.80
2022,10,04,05,59,13.70
2022,10,04,06,00,13.80
2022,10,04,06,01,13.80
2022,10,04,06,02,13.80
2022,10,04,06,03,13.70
2022,10,04,06,04,13.70
2022,10,04,06,05,13.70
2022,10,04,06,06,13.70
2022,10,04,06,07,13.70
2022,10,04,06,08,13.70
2022,10,04,06,09,13.70
2022,10,04,06,10,13.70
2022,10,04,06,11,13.70
2022,10,04,06,12,13.70
2022,10,04,06,13,13.60
2022,10,04,06,14,13.60
2022,10,04,06,15,13.60
2022,10,04,06,16,13.60
2022,10,04,06,17,13.60
2022,10,04,06,18,13.60
2022,10,04,06,19,13.50
2022,10,04,06,20,13.50
2022,10,04,06,21,13.50
2022,10,04,06,22,13.50
2022,10,04,06,23,13.40
2022,10,04,06,24,13.40
2022,10,04,06,25,13.40
2022,10,04,06,26,13.40
2022,10,04,06,27,13.40
2022,10,04,06,28,13.40
2022,10,04,06,29,13.40
2022,10,04,06,30,13.40
2022,10,04,06,31,13.40
2022,10,04,06,32,13.40
2022,10,04,06,33,13.40
2022,10,04,06,34,13.30
2022,10,04,06,35,13.30
2022,10,04,06,36,13.30
2022,10,04,06,37,13.30
2022,10,04,06,38,13.30
2022,10,04,06,39,13.30
2022,10,04,06,40,13.30
2022,10,04,06,41,13.30
2022,10,04,06,42,13.30
2022,10,04,06,43,13.30
2022,10,04,06,44,13.30
2022,10,04,06,45,13.40
2022,10,04,06,46,13.40
2022,10,04,06,47,13.40
2022,10,04,06,48,13.40
2022,10,04,06,49,13.40
2022,10,04,06,50,13.40
2022,10,04,06,51,13.40
2022,10,04,06,52,13.40
2022,10,04,06,53,13.40
2022,10,04,06,54,13.30
2022,10,04,06,55,13.30
2022,10,04,06,56,13.40
2022,10,04,06,57,13.40
2022,10,04,06,58,13.40
2022,10,04,06,59,13.40
2022,10,04,07,00,13.30
2022,10,04,07,01,13.30
2022,10,04,07,02,13.30
2022,10,04,07,03,13.30
2022,10,04,07,04,13.30
2022,10,04,07,05,13.30
2022,10,04,07,06,13.20
2022,10,04,07,07,13.20
2022,10,04,07,08,13.20
2022,10,04,07,09,13.20
2022,10,04,07,10,13.20
2022,10,04,07,11,13.20
2022,10,04,07,12,13.20
2022,10,04,07,13,13.20
2022,10,04,07,14,13.20
2022,10,04,07,15,13.20
2022,10,04,07,16,13.20
2022,10,04,07,17,13.20
2022,10,04,07,18,13.20
2022,10,04,07,19,13.20
2022,10,04,07,20,13.20
2022,10,04,07,21,13.20
2022,10,04,07,22,13.20
2022,10,04,07,23,13.20
2022,10,04,07,24,13.20
2022,10,04,07,25,13.20
2022,10,04,07,26,13.20
2022,10,04,07,27,13.20
2022,10,04,07,28,13.20
2022,10,04,07,29,13.20
2022,10,04,07,30,13.20
2022,10,04,07,31,13.20
2022,10,04,07,32,13.20
2022,10,04,07,33,13.20
2022,10,04,07,34,13.20
2022,10,04,07,35,13.20
2022,10,04,07,36,13.20
2022,10,04,07,37,13.20
2022,10,04,07,38,13.20
2022,10,04,07,39,13.20
2022,10,04,07,40,13.20
2022,10,04,07,41,13.20
2022,10,04,07,42,13.20
2022,10,04,07,43,13.20
2022,10,04,07,44,13.20
2022,10,04,07,45,13.20
2022,10,04,07,46,13.20
2022,10,04,07,47,13.20
2022,10,04,07,48,13.20
2022,10,04,07,49,13.30
2022,10,04,07,50,13.30
2022,10,04,07,51,13.30
2022,10,04,07,52,13.30
2022,10,04,07,53,13.30
2022,10,04,07,54,13.30
2022,10,04,07,55,13.30
2022,10,04,07,56,13.30
2022,10,04,07,57,13.30
2022,10,04,07,58,13.30
2022,10,04,07,59,13.30
2022,10,04,08,00,13.40
2022,10,04,08,01,13.40
2022,10,04,08,02,13.40
2022,10,04,08,03,13.40
2022,10,04,08,04,13.30
2022,10,04,08,05,13.40
2022,10,04,08,06,13.40
2022,10,04,08,07,13.40
2022,10,04,08,08,13.40
2022,10,04,08,09,13.40
2022,10,04,08,10,13.40
2022,10,04,08,11,13.40
2022,10,04,08,12,13.40
2022,10,04,08,13,13.40
2022,10,04,08,14,13.40
2022,10,04,08,15,13.40
2022,10,04,08,16,13.40
2022,10,04,08,17,13.40
2022,10,04,08,18,13.40
2022,10,04,08,19,13.40
2022,10,04,08,20,13.40
2022,10,04,08,21,13.40
2022,10,04,08,22,13.40
2022,10,04,08,23,13.40
2022,10,04,08,24,13.40
2022,10,04,08,25,13.40
2022,10,04,08,26,13.40
2022,10,04,08,27,13.40
2022,10,04,08,28,13.40
2022,10,04,08,29,13.40
2022,10,04,08,30,13.40
2022,10,04,08,31,13.40
2022,10,04,08,32,13.40
2022,10,04,08,33,13.40
2022,10,04,08,34,13.40
2022,10,04,08,35,13.40
2022,10,04,08,36,13.40
2022,10,04,08,37,13.40
2022,10,04,08,38,13.40
2022,10,04,08,39,13.40
2022,10,04,08,40,13.40
2022,10,04,08,41,13.40
2022,10,04,08,42,13.40
2022,10,04,08,43,13.40
2022,10,04,08,44,13.40
2022,10,04,08,45,13.40
2022,10,04,08,46,13.40
2022,10,04,08,47,13.30
2022,10,04,08,48,13.30
2022,10,04,08,49,13.30
2022,10,04,08,50,13.40
2022,10,04,08,51,13.40
2022,10,04,08,52,13.40
2022,10,04,08,53,13.40
2022,10,04,08,54,13.30
2022,10,04,08,55,13.30
2022,10,04,08,56,13.20
2022,10,04,08,57,13.20
2022,10,04,08,58,13.20
2022,10,04,08,59,13.20
2022,10,04,09,00,13.20
2022,10,04,09,01,13.20
2022,10,04,09,02,13.20
2022,10,04,09,03,13.20
2022,10,04,09,04,13.30
2022,10,04,09,05,13.30
2022,10,04,09,06,13.30
2022,10,04,09,07,13.30
2022,10,04,09,08,13.30
2022,10,04,09,09,13.40
2022,10,04,09,10,13.40
2022,10,04,09,11,13.40
2022,10,04,09,12,13.40
2022,10,04,09,13,13.50
2022,10,04,09,14,13.50
2022,10,04,09,15,13.50
2022,10,04,09,16,13.50
2022,10,04,09,17,13.60
2022,10,04,09,18,13.60
2022,10,04,09,19,13.60
2022,10,04,09,20,13.70
2022,10,04,09,21,13.70
2022,10,04,09,22,13.70
2022,10,04,09,23,13.80
2022,10,04,09,24,13.80
2022,10,04,09,25,13.80
2022,10,04,09,26,13.90
2022,10,04,09,27,13.90
2022,10,04,09,28,14.00
2022,10,04,09,29,14.00
2022,10,04,09,30,14.10
2022,10,04,09,31,14.10
2022,10,04,09,32,14.20
2022,10,04,09,33,14.20
2022,10,04,09,34,14.30
2022,10,04,09,35,14.30
2022,10,04,09,36,14.40
2022,10,04,09,37,14.40
2022,10,04,09,38,14.50
2022,10,04,09,39,14.60
2022,10,04,09,40,14.60
2022,10,04,09,41,14.60
2022,10,04,09,42,14.60
2022,10,04,09,43,14.60
2022,10,04,09,44,14.60
2022,10,04,09,45,14.60
2022,10,04,09,46,14.60
2022,10,04,09,47,14.70
2022,10,04,09,48,14.70
2022,10,04,09,49,14.80
2022,10,04,09,50,14.90
2022,10,04,09,51,15.00
2022,10,04,09,52,15.00
2022,10,04,09,53,15.10
2022,10,04,09,54,15.20
2022,10,04,09,55,15.30
2022,10,04,09,56,15.30
2022,10,04,09,57,15.40
2022,10,04,09,58,15.40
2022,10,04,09,59,15.50
2022,10,04,10,00,15.50
2022,10,04,10,01,15.60
2022,10,04,10,02,15.60
2022,10,04,10,03,15.60
2022,10,04,10,04,15.70
2022,10,04,10,05,15.70
2022,10,04,10,06,15.80
2022,10,04,10,07,15.80
2022,10,04,10,08,15.80
2022,10,04,10,09,15.90
2022,10,04,10,10,15.90
2022,10,04,10,11,15.90
2022,10,04,10,12,16.00
2022,10,04,10,13,16.00
2022,10,04,10,14,16.00
2022,10,04,10,15,16.10
2022,10,04,10,16,16.20
2022,10,04,10,17,16.20
2022,10,04,10,18,16.30
2022,10,04,10,19,16.40
2022,10,04,10,20,16.40
2022,10,04,10,21,16.50
2022,10,04,10,22,16.50
2022,10,04,10,23,16.60
2022,10,04,10,24,16.60
2022,10,04,10,25,16.70
2022,10,04,10,26,16.70
2022,10,04,10,27,16.70
2022,10,04,10,28,16.80
2022,10,04,10,29,16.80
2022,10,04,10,30,16.80
2022,10,04,10,31,16.80
2022,10,04,10,32,16.80
2022,10,04,10,33,16.90
2022,10,04,10,34,16.90
2022,10,04,10,35,17.00
2022,10,04,10,36,17.00
2022,10,04,10,37,17.10
2022,10,04,10,38,17.10
2022,10,04,10,39,17.20
2022,10,04,10,40,17.30
2022,10,04,10,41,17.30
2022,10,04,10,42,17.40
2022,10,04,10,43,17.40
2022,10,04,10,44,17.40
2022,10,04,10,45,17.40
2022,10,04,10,46,17.40
2022,10,04,10,47,17.40
2022,10,04,10,48,17.40
2022,10,04,10,49,17.40
2022,10,04,10,50,17.40
2022,10,04,10,51,17.40
2022,10,04,10,52,17.40
2022,10,04,10,53,17.40
2022,10,04,10,54,17.40
2022,10,04,10,55,17.40
2022,10,04,10,56,17.40
2022,10,04,10,57,17.40
2022,10,04,10,58,17.30
2022,10,04,10,59,17.30
2022,10,04,11,00,17.30
2022,10,04,11,01,17.20
2022,10,04,11,02,17.20
2022,10,04,11,03,17.10
2022,10,04,11,04,17.10
2022,10,04,11,05,17.00
2022,10,04,11,06,16.90
2022,10,04,11,07,16.90
2022,10,04,11,08,16.80
2022,10,04,11,09,16.70
2022,10,04,11,10,16.60
2022,10,04,11,11,16.50
2022,10,04,11,12,16.50
2022,10,04,11,13,16.40
2022,10,04,11,14,16.40
2022,10,04,11,15,16.30
2022,10,04,11,16,16.20
2022,10,04,11,17,16.10
2022,10,04,11,18,16.10
2022,10,04,11,19,16.10
2022,10,04,11,20,16.00
2022,10,04,11,21,16.00
2022,10,04,11,22,16.00
2022,10,04,11,23,16.00
2022,10,04,11,24,16.00
2022,10,04,11,25,16.00
2022,10,04,11,26,15.90
2022,10,04,11,27,15.90
2022,10,04,11,28,15.90
2022,10,04,11,29,15.90
2022,10,04,11,30,16.00
2022,10,04,11,31,16.00
2022,10,04,11,32,16.10
2022,10,04,11,33,16.10
2022,10,04,11,34,16.10
2022,10,04,11,35,16.10
2022,10,04,11,36,16.20
2022,10,04,11,37,16.20
2022,10,04,11,38,16.30
2022,10,04,11,39,16.40
2022,10,04,11,40,16.40
2022,10,04,11,41,16.40
2022,10,04,11,42,16.50
2022,10,04,11,43,16.60
2022,10,04,11,44,16.60
2022,10,04,11,45,16.70
2022,10,04,11,46,16.80
2022,10,04,11,47,16.80
2022,10,04,11,48,16.90
2022,10,04,11,49,16.90
2022,10,04,11,50,17.00
2022,10,04,11,51,17.00
2022,10,04,11,52,17.00
2022,10,04,11,53,16.90
2022,10,04,11,54,16.90
2022,10,04,11,55,16.80
2022,10,04,11,56,16.80
2022,10,04,11,57,16.80
2022,10,04,11,58,16.80
2022,10,04,11,59,16.80
2022,10,04,12,00,16.80
2022,10,04,12,01,16.90
2022,10,04,12,02,16.90
2022,10,04,12,03,16.90
2022,10,04,12,04,16.90
2022,10,04,12,05,16.90
2022,10,04,12,06,16.80
2022,10,04,12,07,16.80
2022,10,04,12,08,16.80
2022,10,04,12,09,16.80
2022,10,04,12,10,16.80
2022,10,04,12,11,16.90
2022,10,04,12,12,16.90
2022,10,04,12,13,16.90
2022,10,04,12,14,17.00
2022,10,04,12,15,17.10
2022,10,04,12,16,17.10
2022,10,04,12,17,17.10
2022,10,04,12,18,17.20
2022,10,04,12,19,17.20
2022,10,04,12,20,17.30
2022,10,04,12,21,17.30
2022,10,04,12,22,17.30
2022,10,04,12,23,17.30
2022,10,04,12,24,17.30
2022,10,04,12,25,17.30
2022,10,04,12,26,17.30
2022,10,04,12,27,17.40
2022,10,04,12,28,17.40
2022,10,04,12,29,17.40
2022,10,04,12,30,17.40
2022,10,04,12,31,17.40
2022,10,04,12,32,17.40
2022,10,04,12,33,17.40
2022,10,04,12,34,17.40
2022,10,04,12,35,17.40
2022,10,04,12,36,17.40
2022,10,04,12,37,17.40
2022,10,04,12,38,17.30
2022,10,04,12,39,17.30
2022,10,04,12,40,17.30
2022,10,04,12,41,17.30
2022,10,04,12,42,17.30
2022,10,04,12,43,17.30
2022,10,04,12,44,17.30
2022,10,04,12,45,17.30
2022,10,04,12,46,17.40
2022,10,04,12,47,17.40
2022,10,04,12,48,17.40
2022,10,04,12,49,17.50
2022,10,04,12,50,17.60
2022,10,04,12,51,17.60
2022,10,04,12,52,17.60
2022,10,04,12,53,17.70
2022,10,04,12,54,17.70
2022,10,04,12,55,17.80
2022,10,04,12,56,17.90
2022,10,04,12,57,17.90
2022,10,04,12,58,17.90
2022,10,04,12,59,18.00
2022,10,04,13,00,18.00
2022,10,04,13,01,18.10
2022,10,04,13,02,18.10
2022,10,04,13,03,18.20
2022,10,04,13,04,18.20
2022,10,04,13,05,18.30
2022,10,04,13,06,18.30
2022,10,04,13,07,18.30
2022,10,04,13,08,18.40
2022,10,04,13,09,18.40
2022,10,04,13,10,18.40
2022,10,04,13,11,18.40
2022,10,04,13,12,18.50
2022,10,04,13,13,18.50
2022,10,04,13,14,18.40
2022,10,04,13,15,18.40
2022,10,04,13,16,18.40
2022,10,04,13,17,18.30
2022,10,04,13,18,18.30
2022,10,04,13,19,18.20
2022,10,04,13,20,18.20
2022,10,04,13,21,18.10
2022,10,04,13,22,18.00
2022,10,04,13,23,17.90
2022,10,04,13,24,17.90
2022,10,04,13,25,17.80
2022,10,04,13,26,17.90
2022,10,04,13,27,18.00
2022,10,04,13,28,18.10
2022,10,04,13,29,18.10
2022,10,04,13,30,18.10
2022,10,04,13,31,18.10
2022,10,04,13,32,18.10
2022,10,04,13,33,18.10
2022,10,04,13,34,18.10
2022,10,04,13,35,18.10
2022,10,04,13,36,18.20
2022,10,04,13,37,18.20
2022,10,04,13,38,18.20
2022,10,04,13,39,18.20
2022,10,04,13,40,18.20
2022,10,04,13,41,18.20
2022,10,04,13,42,18.20
2022,10,04,13,43,18.30
2022,10,04,13,44,18.30
2022,10,04,13,45,18.40
2022,10,04,13,46,18.40
2022,10,04,13,47,18.40
2022,10,04,13,48,18.40
2022,10,04,13,49,18.30
2022,10,04,13,50,18.30
2022,10,04,13,51,18.20
2022,10,04,13,52,18.20
2022,10,04,13,53,18.10
2022,10,04,13,54,18.10
2022,10,04,13,55,18.20
2022,10,04,13,56,18.20
2022,10,04,13,57,18.30
2022,10,04,13,58,18.30
2022,10,04,13,59,18.30
2022,10,04,14,00,18.30
2022,10,04,14,01,18.30
2022,10,04,14,02,18.30
2022,10,04,14,03,18.40
2022,10,04,14,04,18.40
2022,10,04,14,05,18.40
2022,10,04,14,06,18.50
2022,10,04,14,07,18.40
2022,10,04,14,08,18.40
2022,10,04,14,09,18.40
2022,10,04,14,10,18.50
2022,10,04,14,11,18.50
2022,10,04,14,12,18.60
2022,10,04,14,13,18.60
2022,10,04,14,14,18.70
2022,10,04,14,15,18.70
2022,10,04,14,16,18.80
2022,10,04,14,17,18.90
2022,10,04,14,18,18.90
2022,10,04,14,19,19.00
2022,10,04,14,20,19.10
2022,10,04,14,21,19.10
2022,10,04,14,22,19.20
2022,10,04,14,23,19.20
2022,10,04,14,24,19.20
2022,10,04,14,25,19.20
2022,10,04,14,26,19.20
2022,10,04,14,27,19.20
2022,10,04,14,28,19.20
2022,10,04,14,29,19.20
2022,10,04,14,30,19.20
2022,10,04,14,31,19.20
2022,10,04,14,32,19.20
2022,10,04,14,33,19.20
2022,10,04,14,34,19.20
2022,10,04,14,35,19.20
2022,10,04,14,36,19.20
2022,10,04,14,37,19.20
2022,10,04,14,38,19.20
2022,10,04,14,39,19.20
2022,10,04,14,40,19.30
2022,10,04,14,41,19.30
2022,10,04,14,42,19.40
2022,10,04,14,43,19.40
2022,10,04,14,44,19.40
2022,10,04,14,45,19.50
2022,10,04,14,46,19.50
2022,10,04,14,47,19.60
2022,10,04,14,48,19.70
2022,10,04,14,49,19.70
2022,10,04,14,50,19.80
2022,10,04,14,51,19.70
2022,10,04,14,52,19.70
2022,10,04,14,53,19.70
2022,10,04,14,54,19.70
2022,10,04,14,55,19.60
2022,10,04,14,56,19.60
2022,10,04,14,57,19.60
2022,10,04,14,58,19.60
2022,10,04,14,59,19.60
2022,10,04,15,00,19.70
2022,10,04,15,01,19.70
2022,10,04,15,02,19.80
2022,10,04,15,03,19.90
2022,10,04,15,04,19.90
2022,10,04,15,05,19.90
2022,10,04,15,06,20.00
2022,10,04,15,07,20.00
2022,10,04,15,08,20.00
2022,10,04,15,09,20.10
2022,10,04,15,10,20.10
2022,10,04,15,11,20.10
2022,10,04,15,12,20.10
2022,10,04,15,13,20.10
2022,10,04,15,14,20.10
2022,10,04,15,15,20.10
2022,10,04,15,16,20.10
2022,10,04,15,17,20.10
2022,10,04,15,18,20.20
2022,10,04,15,19,20.30
2022,10,04,15,20,20.30
2022,10,04,15,21,20.30
2022,10,04,15,22,20.30
2022,10,04,15,23,20.40
2022,10,04,15,24,20.40
2022,10,04,15,25,20.40
2022,10,04,15,26,20.40
2022,10,04,15,27,20.50
2022,10,04,15,28,20.50
2022,10,04,15,29,20.50
2022,10,04,15,30,20.60
2022,10,04,15,31,20.60
2022,10,04,15,32,20.60
2022,10,04,15,33,20.70
2022,10,04,15,34,20.70
2022,10,04,15,35,20.70
2022,10,04,15,36,20.70
2022,10,04,15,37,20.60
2022,10,04,15,38,20.60
2022,10,04,15,39,20.50
2022,10,04,15,40,20.50
2022,10,04,15,41,20.40
2022,10,04,15,42,20.40
2022,10,04,15,43,20.50
2022,10,04,15,44,20.50
2022,10,04,15,45,20.60
2022,10,04,15,46,20.60
2022,10,04,15,47,20.60
2022,10,04,15,48,20.60
2022,10,04,15,49,20.60
2022,10,04,15,50,20.60
2022,10,04,15,51,20.60
2022,10,04,15,52,20.60
2022,10,04,15,53,20.50
2022,10,04,15,54,20.50
2022,10,04,15,55,20.40
2022,10,04,15,56,20.40
2022,10,04,15,57,20.30
2022,10,04,15,58,20.30
2022,10,04,15,59,20.20
2022,10,04,16,00,20.10
2022,10,04,16,01,20.10
2022,10,04,16,02,20.00
2022,10,04,16,03,19.90
2022,10,04,16,04,19.90
2022,10,04,16,05,19.80
2022,10,04,16,06,19.70
2022,10,04,16,07,19.70
2022,10,04,16,08,19.60
2022,10,04,16,09,19.50
2022,10,04,16,10,19.40
2022,10,04,16,11,19.40
2022,10,04,16,12,19.40
2022,10,04,16,13,19.40
2022,10,04,16,14,19.30
2022,10,04,16,15,19.30
2022,10,04,16,16,19.20
2022,10,04,16,17,19.20
2022,10,04,16,18,19.10
2022,10,04,16,19,19.10
2022,10,04,16,20,19.10
2022,10,04,16,21,19.10
2022,10,04,16,22,19.00
2022,10,04,16,23,19.00
2022,10,04,16,24,19.00
2022,10,04,16,25,19.10
2022,10,04,16,26,19.10
2022,10,04,16,27,19.10
2022,10,04,16,28,19.00
2022,10,04,16,29,19.00
2022,10,04,16,30,19.00
2022,10,04,16,31,18.90
2022,10,04,16,32,18.90
2022,10,04,16,33,18.80
2022,10,04,16,34,18.80
2022,10,04,16,35,18.80
2022,10,04,16,36,18.70
2022,10,04,16,37,18.70
2022,10,04,16,38,18.60
2022,10,04,16,39,18.60
2022,10,04,16,40,18.60
2022,10,04,16,41,18.50
2022,10,04,16,42,18.50
2022,10,04,16,43,18.40
2022,10,04,16,44,18.40
2022,10,04,16,45,18.30
2022,10,04,16,46,18.30
2022,10,04,16,47,18.20
2022,10,04,16,48,18.10
2022,10,04,16,49,18.00
2022,10,04,16,50,18.00
2022,10,04,16,51,17.90
2022,10,04,16,52,17.80
2022,10,04,16,53,17.80
2022,10,04,16,54,17.70
2022,10,04,16,55,17.70
2022,10,04,16,56,17.60
2022,10,04,16,57,17.60
2022,10,04,16,58,17.60
2022,10,04,16,59,17.50
2022,10,04,17,00,17.50
2022,10,04,17,01,17.50
2022,10,04,17,02,17.50
2022,10,04,17,03,17.50
2022,10,04,17,04,17.50
2022,10,04,17,05,17.50
2022,10,04,17,06,17.50
2022,10,04,17,07,17.60
2022,10,04,17,08,17.60
2022,10,04,17,09,17.60
2022,10,04,17,10,17.70
2022,10,04,17,11,17.70
2022,10,04,17,12,17.80
2022,10,04,17,13,17.90
2022,10,04,17,14,18.00
2022,10,04,17,15,18.10
2022,10,04,17,16,18.20
2022,10,04,17,17,18.40
2022,10,04,17,18,18.50
2022,10,04,17,19,18.60